格洛纳斯-791 COSMOS 2394 [GLONASS]

导读

COSMOS 2394是独联体(CIS)于2002年12月25日发射升空的GLONASS全球导航卫星系统卫星,GLONASS由俄罗斯自主研发,与GPS、北斗、伽利略并称世界四大卫星导航系统。该卫星运行于约19100公里高度的中地球轨道,轨道倾角64.8°,运行周期约11小时15分,为全球定位导航授时服务提供空间段支撑。

基本信息
目录编号:
27617
目录名称:
COSMOS 2394 (GLONASS)
国际标识:
2002-060A
轨道中心:
EARTH
卫星名称:
格洛纳斯-791
卫星全名:
格洛纳斯-791 COSMOS 2394 [GLONASS]
卫星状态:
在轨 (已飞行8661 天)
发射日期:
2002-12-25 UTC
国别 :
俄罗斯(独联体) (CIS)
星等 :
--
该卫星已列入 空间交会检测服务 Space Conjunction Data Service (SCDS) ,当前飞行风险评估等级: 无高风险
轨道信息
数据来源 国际轨道数据
星历时间: 2026-09-11T08:00:07+0800
14小时前
查看轨道信息
半长轴: 25507.985km
偏心率: 0.0002251
轨道倾角: 65.374°
近地点辐角 277.870°
升交点赤经 312.750°
平近点角 82.183°
近地点: 19124.106km
远地点: 19135.59km
周期: 675.731分钟
每日圈数: 2.131025
详细信息
平衡模式:
三轴稳定
覆盖范围:
全球
运营商:
列舍特涅夫卫星信息系统
运营商所在国:
俄罗斯
制造商(研发单位):
列舍特涅夫卫星信息系统
制造商所在国:
俄罗斯
使用方式:
暂无
卫星简介
格洛纳斯(GLONASS )是苏联/俄罗斯研制卫星导航系统。标准配置为24颗卫星,其中18颗卫星就能保证该系统为俄罗斯境内用户提供全部服务。该卫星已退役。
2D轨道图
3D轨道图
轨道高度分析图
轨道倾角分析图
轨道综合分析图
查看轨道综合分析图
与全量物体交会距离演化趋势
与全量物体交会风险概率演化趋势